Time,TemperatureF,DewpointF,PressureIn,WindDirection,WindDirectionDegrees,WindSpeedMPH,WindSpeedGustMPH,Humidity,HourlyPrecipIn,Conditions,Clouds,dailyrainin,SoftwareType,DateUTC
2013-01-01 00:00:00,33.6,26.6,30.15,WSW,247,11.0,-999.0,75,-99.99,,,0.00,Acu-Link.com,2013-01-01 05:00:00,
2013-01-01 00:16:00,33.6,26.6,30.14,SW,225,5.1,-999.0,75,-99.99,,,0.00,Acu-Link.com,2013-01-01 05:16:00,
2013-01-01 00:31:00,34.0,26.9,30.15,West,270,6.3,-999.0,75,-99.99,,,0.00,Acu-Link.com,2013-01-01 05:31:00,
2013-01-01 00:46:00,34.0,27.2,30.14,SW,225,4.7,-999.0,76,-99.99,,,0.00,Acu-Link.com,2013-01-01 05:46:00,
2013-01-01 01:01:00,34.0,27.5,30.14,West,270,8.3,-999.0,77,-99.99,,,0.00,Acu-Link.com,2013-01-01 06:01:00,
2013-01-01 01:16:00,33.6,28.1,30.14,West,270,7.8,-999.0,80,-99.99,,,0.00,Acu-Link.com,2013-01-01 06:16:00,
2013-01-01 01:32:00,33.6,28.1,30.14,West,270,6.7,-999.0,80,-99.99,,,0.00,Acu-Link.com,2013-01-01 06:32:00,
2013-01-01 01:47:00,33.6,28.1,30.15,WSW,247,4.7,-999.0,80,-99.99,,,0.00,Acu-Link.com,2013-01-01 06:47:00,
2013-01-01 02:02:00,33.3,28.1,30.15,NW,315,5.1,-999.0,81,-99.99,,,0.00,Acu-Link.com,2013-01-01 07:02:00,
2013-01-01 02:17:00,33.1,28.2,30.16,WSW,247,9.8,-999.0,82,-99.99,,,0.00,Acu-Link.com,2013-01-01 07:17:00,
2013-01-01 02:32:00,32.7,27.8,30.16,West,270,6.3,-999.0,82,-99.99,,,0.00,Acu-Link.com,2013-01-01 07:32:00,
2013-01-01 02:48:00,32.4,27.8,30.15,West,270,2.7,-999.0,83,-99.99,,,0.00,Acu-Link.com,2013-01-01 07:48:00,
2013-01-01 03:03:00,32.0,28.0,30.13,West,270,5.1,-999.0,85,-99.99,,,0.00,Acu-Link.com,2013-01-01 08:03:00,
2013-01-01 03:18:00,32.0,28.0,30.13,SSW,202,7.4,-999.0,85,-99.99,,,0.00,Acu-Link.com,2013-01-01 08:18:00,
2013-01-01 03:33:00,32.2,28.2,30.14,NW,315,3.1,-999.0,85,-99.99,,,0.00,Acu-Link.com,2013-01-01 08:33:00,
2013-01-01 03:49:00,32.5,28.5,30.14,West,270,5.1,-999.0,85,-99.99,,,0.00,Acu-Link.com,2013-01-01 08:49:00,
2013-01-01 04:07:00,32.7,28.7,30.14,SW,225,7.4,-999.0,85,-99.99,,,0.00,Acu-Link.com,2013-01-01 09:07:00,
2013-01-01 04:22:00,33.3,29.2,30.15,NE,45,4.3,-999.0,85,-99.99,,,0.00,Acu-Link.com,2013-01-01 09:22:00,
2013-01-01 04:37:00,33.3,29.2,30.14,West,270,2.2,-999.0,85,-99.99,,,0.00,Acu-Link.com,2013-01-01 09:37:00,
2013-01-01 04:52:00,33.6,29.6,30.15,SW,225,4.7,-999.0,85,-99.99,,,0.00,Acu-Link.com,2013-01-01 09:52:00,
2013-01-01 05:08:00,33.4,29.4,30.15,SW,225,4.7,-999.0,85,-99.99,,,0.00,Acu-Link.com,2013-01-01 10:08:00,
2013-01-01 05:23:00,33.4,29.4,30.14,WSW,247,8.3,-999.0,85,-99.99,,,0.00,Acu-Link.com,2013-01-01 10:23:00,
2013-01-01 05:38:00,33.8,29.8,30.15,WSW,247,7.8,-999.0,85,-99.99,,,0.00,Acu-Link.com,2013-01-01 10:38:00,
2013-01-01 05:53:00,33.6,29.6,30.14,SSW,202,3.8,-999.0,85,-99.99,,,0.00,Acu-Link.com,2013-01-01 10:53:00,
2013-01-01 06:08:00,33.6,29.6,30.14,WSW,247,5.1,-999.0,85,-99.99,,,0.00,Acu-Link.com,2013-01-01 11:08:00,
2013-01-01 06:24:00,33.4,29.4,30.15,West,270,2.2,-999.0,85,-99.99,,,0.00,Acu-Link.com,2013-01-01 11:24:00,
2013-01-01 06:39:00,33.6,29.6,30.16,West,270,2.7,-999.0,85,-99.99,,,0.00,Acu-Link.com,2013-01-01 11:39:00,
2013-01-01 06:54:00,33.4,29.4,30.16,West,270,2.7,-999.0,85,-99.99,,,0.00,Acu-Link.com,2013-01-01 11:54:00,
2013-01-01 07:09:00,33.1,29.1,30.15,NNW,337,2.7,-999.0,85,-99.99,,,0.00,Acu-Link.com,2013-01-01 12:09:00,
2013-01-01 07:25:00,33.3,28.7,30.16,West,270,2.7,-999.0,83,-99.99,,,0.00,Acu-Link.com,2013-01-01 12:25:00,
2013-01-01 07:40:00,33.1,28.8,30.16,SW,225,3.8,-999.0,84,-99.99,,,0.00,Acu-Link.com,2013-01-01 12:40:00,
2013-01-01 07:55:00,33.3,28.7,30.16,WNW,292,4.7,-999.0,83,-99.99,,,0.00,Acu-Link.com,2013-01-01 12:55:00,
2013-01-01 08:10:00,33.3,28.4,30.17,West,270,7.8,-999.0,82,-99.99,,,0.00,Acu-Link.com,2013-01-01 13:10:00,
2013-01-01 08:25:00,33.8,28.3,30.17,NW,315,5.1,-999.0,80,-99.99,,,0.00,Acu-Link.com,2013-01-01 13:25:00,
2013-01-01 08:41:00,34.0,28.2,30.18,NW,315,3.1,-999.0,79,-99.99,,,0.00,Acu-Link.com,2013-01-01 13:41:00,
2013-01-01 08:56:00,34.7,28.2,30.17,ENE,67,2.2,-999.0,77,-99.99,,,0.00,Acu-Link.com,2013-01-01 13:56:00,
2013-01-01 09:11:00,35.4,28.3,30.17,WNW,292,2.7,-999.0,75,-99.99,,,0.00,Acu-Link.com,2013-01-01 14:11:00,
2013-01-01 09:26:00,35.6,28.5,30.19,West,270,4.3,-999.0,75,-99.99,,,0.00,Acu-Link.com,2013-01-01 14:26:00,
2013-01-01 09:41:00,35.6,28.1,30.19,NW,315,3.8,-999.0,74,-99.99,,,0.00,Acu-Link.com,2013-01-01 14:41:00,
2013-01-01 09:57:00,35.6,28.1,30.19,West,270,3.1,-999.0,74,-99.99,,,0.00,Acu-Link.com,2013-01-01 14:57:00,
2013-01-01 10:12:00,35.2,28.1,30.20,NW,315,6.7,-999.0,75,-99.99,,,0.00,Acu-Link.com,2013-01-01 15:12:00,
2013-01-01 10:27:00,36.1,29.0,30.19,NW,315,6.7,-999.0,75,-99.99,,,0.00,Acu-Link.com,2013-01-01 15:27:00,
2013-01-01 10:42:00,35.6,28.8,30.20,WSW,247,6.7,-999.0,76,-99.99,,,0.00,Acu-Link.com,2013-01-01 15:42:00,
2013-01-01 10:57:00,35.4,28.0,30.19,West,270,4.3,-999.0,74,-99.99,,,0.00,Acu-Link.com,2013-01-01 15:57:00,
2013-01-01 11:13:00,35.8,28.0,30.19,West,270,15.4,-999.0,73,-99.99,,,0.00,Acu-Link.com,2013-01-01 16:13:00,
2013-01-01 11:28:00,35.6,28.1,30.19,West,270,5.8,-999.0,74,-99.99,,,0.00,Acu-Link.com,2013-01-01 16:28:00,
2013-01-01 11:43:00,35.1,27.0,30.17,SW,225,8.9,-999.0,72,-99.99,,,0.00,Acu-Link.com,2013-01-01 16:43:00,
2013-01-01 11:58:00,34.9,26.4,30.16,West,270,6.7,-999.0,71,-99.99,,,0.00,Acu-Link.com,2013-01-01 16:58:00,
2013-01-01 12:13:00,35.1,26.6,30.16,West,270,3.8,-999.0,71,-99.99,,,0.00,Acu-Link.com,2013-01-01 17:13:00,
2013-01-01 12:29:00,35.8,26.6,30.15,West,270,4.3,-999.0,69,-99.99,,,0.00,Acu-Link.com,2013-01-01 17:29:00,
2013-01-01 12:44:00,34.0,25.6,30.16,West,270,5.1,-999.0,71,-99.99,,,0.00,Acu-Link.com,2013-01-01 17:44:00,
2013-01-01 12:59:00,33.6,25.2,30.15,WNW,292,8.9,-999.0,71,-99.99,,,0.00,Acu-Link.com,2013-01-01 17:59:00,
2013-01-01 13:14:00,34.7,25.9,30.15,WNW,292,11.4,-999.0,70,-99.99,,,0.00,Acu-Link.com,2013-01-01 18:14:00,
2013-01-01 13:30:00,33.4,24.7,30.16,West,270,8.9,-999.0,70,-99.99,,,0.00,Acu-Link.com,2013-01-01 18:30:00,
2013-01-01 13:45:00,33.3,24.6,30.15,West,270,5.1,-999.0,70,-99.99,,,0.00,Acu-Link.com,2013-01-01 18:45:00,
2013-01-01 14:00:00,33.4,24.7,30.16,NW,315,4.7,-999.0,70,-99.99,,,0.00,Acu-Link.com,2013-01-01 19:00:00,
2013-01-01 14:15:00,33.4,25.4,30.16,NW,315,9.8,-999.0,72,-99.99,,,0.00,Acu-Link.com,2013-01-01 19:15:00,
2013-01-01 14:30:00,32.5,25.5,30.15,West,270,7.4,-999.0,75,-99.99,,,0.00,Acu-Link.com,2013-01-01 19:30:00,
2013-01-01 14:46:00,31.6,25.0,30.15,WNW,292,5.1,-999.0,76,-99.99,,,0.00,Acu-Link.com,2013-01-01 19:46:00,
2013-01-01 15:01:00,30.9,23.9,30.17,SW,225,4.3,-999.0,75,-99.99,,,0.00,Acu-Link.com,2013-01-01 20:01:00,
2013-01-01 15:16:00,30.2,23.2,30.17,NNW,337,5.8,-999.0,75,-99.99,,,0.00,Acu-Link.com,2013-01-01 20:16:00,
2013-01-01 15:31:00,29.8,22.9,30.17,NW,315,8.3,-999.0,75,-99.99,,,0.00,Acu-Link.com,2013-01-01 20:31:00,
2013-01-01 15:46:00,29.3,21.7,30.17,WNW,292,7.4,-999.0,73,-99.99,,,0.00,Acu-Link.com,2013-01-01 20:46:00,
2013-01-01 16:02:00,28.4,20.9,30.19,NW,315,10.3,-999.0,73,-99.99,,,0.00,Acu-Link.com,2013-01-01 21:02:00,
2013-01-01 16:17:00,28.0,20.5,30.19,NW,315,4.3,-999.0,73,-99.99,,,0.00,Acu-Link.com,2013-01-01 21:17:00,
2013-01-01 16:32:00,27.5,20.0,30.19,West,270,5.8,-999.0,73,-99.99,,,0.00,Acu-Link.com,2013-01-01 21:32:00,
2013-01-01 16:47:00,27.1,19.7,30.20,West,270,10.3,-999.0,73,-99.99,,,0.00,Acu-Link.com,2013-01-01 21:47:00,
2013-01-01 17:02:00,26.6,19.1,30.22,NW,315,8.3,-999.0,73,-99.99,,,0.00,Acu-Link.com,2013-01-01 22:02:00,
2013-01-01 17:18:00,26.6,18.8,30.21,West,270,5.8,-999.0,72,-99.99,,,0.00,Acu-Link.com,2013-01-01 22:18:00,
2013-01-01 17:33:00,26.4,18.3,30.22,West,270,7.4,-999.0,71,-99.99,,,0.00,Acu-Link.com,2013-01-01 22:33:00,
2013-01-01 17:48:00,26.2,17.5,30.22,WNW,292,9.8,-999.0,69,-99.99,,,0.00,Acu-Link.com,2013-01-01 22:48:00,
2013-01-01 18:03:00,26.1,16.6,30.24,NW,315,8.9,-999.0,67,-99.99,,,0.00,Acu-Link.com,2013-01-01 23:03:00,
2013-01-01 18:19:00,25.9,16.1,30.24,NNE,22,3.1,-999.0,66,-99.99,,,0.00,Acu-Link.com,2013-01-01 23:19:00,
2013-01-01 18:34:00,25.5,15.8,30.25,NW,315,7.8,-999.0,66,-99.99,,,0.00,Acu-Link.com,2013-01-01 23:34:00,
2013-01-01 18:49:00,25.2,15.8,30.26,NW,315,11.0,-999.0,67,-99.99,,,0.00,Acu-Link.com,2013-01-01 23:49:00,
2013-01-01 19:04:00,25.0,15.6,30.26,East,90,4.7,-999.0,67,-99.99,,,0.00,Acu-Link.com,2013-01-02 00:04:00,
2013-01-01 19:19:00,24.6,15.3,30.26,WNW,292,5.8,-999.0,67,-99.99,,,0.00,Acu-Link.com,2013-01-02 00:19:00,
2013-01-01 19:35:00,24.1,14.4,30.27,NW,315,7.4,-999.0,66,-99.99,,,0.00,Acu-Link.com,2013-01-02 00:35:00,
2013-01-01 19:50:00,23.9,13.5,30.27,NW,315,3.8,-999.0,64,-99.99,,,0.00,Acu-Link.com,2013-01-02 00:50:00,
2013-01-01 20:05:00,23.2,12.8,30.27,NW,315,4.3,-999.0,64,-99.99,,,0.00,Acu-Link.com,2013-01-02 01:05:00,
2013-01-01 20:20:00,22.8,12.1,30.27,NNW,337,7.8,-999.0,63,-99.99,,,0.00,Acu-Link.com,2013-01-02 01:20:00,
2013-01-01 20:35:00,22.1,11.8,30.27,WNW,292,6.3,-999.0,64,-99.99,,,0.00,Acu-Link.com,2013-01-02 01:35:00,
2013-01-01 20:51:00,21.6,10.9,30.27,WNW,292,8.9,-999.0,63,-99.99,,,0.00,Acu-Link.com,2013-01-02 01:51:00,
2013-01-01 21:06:00,21.2,11.0,30.28,WNW,292,10.3,-999.0,64,-99.99,,,0.00,Acu-Link.com,2013-01-02 02:06:00,
2013-01-01 21:21:00,20.7,10.8,30.29,WNW,292,7.8,-999.0,65,-99.99,,,0.00,Acu-Link.com,2013-01-02 02:21:00,
2013-01-01 21:36:00,20.5,9.9,30.29,NW,315,6.3,-999.0,63,-99.99,,,0.00,Acu-Link.com,2013-01-02 02:36:00,
2013-01-01 21:51:00,19.8,9.6,30.29,NW,315,5.1,-999.0,64,-99.99,,,0.00,Acu-Link.com,2013-01-02 02:51:00,
2013-01-01 22:07:00,19.4,8.5,30.30,WNW,292,3.8,-999.0,62,-99.99,,,0.00,Acu-Link.com,2013-01-02 03:07:00,
2013-01-01 22:22:00,19.2,8.7,30.30,West,270,5.8,-999.0,63,-99.99,,,0.00,Acu-Link.com,2013-01-02 03:22:00,
2013-01-01 22:37:00,18.9,8.4,30.31,NW,315,9.4,-999.0,63,-99.99,,,0.00,Acu-Link.com,2013-01-02 03:37:00,
2013-01-01 22:52:00,18.7,8.6,30.32,West,270,11.9,-999.0,64,-99.99,,,0.00,Acu-Link.com,2013-01-02 03:52:00,
2013-01-01 23:08:00,18.3,8.9,30.31,West,270,6.7,-999.0,66,-99.99,,,0.00,Acu-Link.com,2013-01-02 04:08:00,
2013-01-01 23:23:00,18.1,9.1,30.31,West,270,7.4,-999.0,67,-99.99,,,0.00,Acu-Link.com,2013-01-02 04:23:00,
2013-01-01 23:38:00,17.8,9.4,30.32,WNW,292,3.8,-999.0,69,-99.99,,,0.00,Acu-Link.com,2013-01-02 04:38:00,
2013-01-01 23:53:00,17.6,9.5,30.32,NW,315,11.0,-999.0,70,-99.99,,,0.00,Acu-Link.com,2013-01-02 04:53:00,